Tracking 19720 objects as of 26-Jun-2019
HD Live streaming from Space Station
objects crossing your sky now

SL-24 R/B

Track SL-24 R/B now!
10-day predictions


NORAD ID: 33319
Int'l Code: 2008-040H
Perigee: 623.2 km
Apogee: 1,353.9 km
Inclination: 97.9 °
Period: 104.7 minutes
Semi major axis: 7359 km
RCS: 6.1238 m2 (large)
Launch date: August 29, 2008
Source: Commonwealth of Independent States (former USSR) (CIS)
Launch site: TYURATAM MISSILE AND SPACE COMPLEX (TTMTR)

Note: This is a ROCKET BODY
aabbcc
Your satellite tracking list
Your tracking list is empty




NASA's NSSDC Master Catalog

Two Line Element Set (TLE):
1 33319U 08040H   19176.48734014 -.00000026 +00000-0 +42719-5 0  9993
2 33319 097.9437 036.5170 0496412 162.0684 264.4095 13.75074029542981
Source of the keplerian elements: AFSPC